Location: Balmoral
(33.0667°S, 151.5833°E)
Time: 01:29:03
(UTC+00:00)

Meteor 1-5 Rocket - Pass Details

Date: 18 September 2020
Orbit: 789 x 915 km, 81.2° (Epoch: 21 October)

Event Time Altitude Azimuth Distance (km) Brightness Sun altitude
Rises 18:52:23 0° 355° (N) 3,378 7.2 -12.3°
Reaches altitude 10° 18:54:44 10° 355° (N) 2,469 6.5 -11.8°
Maximum altitude 19:00:22 87° 82° (E) 883 4.3 -10.7°
Drops below altitude 10° 19:06:16 10° 171° (S) 2,585 6.9 -9.4°
Sets 19:08:47 0° 171° (S) 3,547 7.6 -8.9°
